User: anonymous   Login
Location: Peebles
(55.6412°N, 3.1714°W)
Time: 02:39:10
(UTC+01:00)
Language:

FLOCK 3P 30 - Orbit

View from above orbital plane
View from above orbital plane
View from above satellite
View from above satellite

Ground track
Ground track

The orbit data is extracted from the following two-line orbital elements,

1 41987U 17008AR  22181.13251856  .00016512  00000-0  39293-3 0  9994
2 41987  97.2789 250.2287 0006828 161.3087 198.8412 15.41677388298999
Epoch (UTC): 30 June 2022 03:10:49
Eccentricity: 0.0006828
inclination: 97.2789°
perigee height: 436 km
apogee height: 446 km
right ascension of ascending node: 250.2287°
argument of perigee: 161.3087°
revolutions per day: 15.41677388
mean anomaly at epoch: 198.8412°
orbit number at epoch: 29899

The dashed part of the orbit path shows where the satellite is in the earth's shadow,  

DLR